Ogden Hill AFB, UT

7:25 PM MDT on March 30, 2017 (GMT -0600)
Hill Air Force Base

Weather History for KHIF - September, 2013

Change the Weather History Date:

Saturday, September 21, 2013

  Actual Average Record
Temperature  
Mean Temperature 72 °F -  
Max Temperature 83 °F 69 °F 83 °F (2013)
Min Temperature 62 °F 48 °F 39 °F (2004)
Cooling Degree Days 8    
Growing Degree Days 22 (Base 50)    
Moisture  
Dew Point 33 °F    
Average Humidity 25    
Maximum Humidity 35    
Minimum Humidity 14    
Precipitation  
Precipitation 0.00 in - - ()
Sea Level Pressure  
Sea Level Pressure 29.63 in    
Wind  
Wind Speed 14 mph (South)    
Max Wind Speed 26 mph    
Max Gust Speed 34 mph    
Visibility 10 miles    
Events      
Averages and records for this station are not official NWS values.
T = Trace of Precipitation, MM = Missing Value Source: NWS Daily Summary

Daily Weather History Graph

Daily Weather History Graph

Search for Another Location

Airport or City:

Trip Planner

Search our weather history database for the weather conditions in past years. The results will help you decide how hot, cold, wet, or windy it might be!

Date:

Astronomy

Sep. 21, 2013 Rise Set
Actual Time 7:14 AM MDT 7:26 PM MDT
Civil Twilight 6:47 AM MDT 7:53 PM MDT
Nautical Twilight 6:14 AM MDT 8:25 PM MDT
Astronomical Twilight 5:41 AM MDT 8:58 PM MDT
Moon 8:37 PM MDT (9/21) 9:38 AM MDT (9/21)
Length of Visible Light 13h 06m
Length of Day
12h 11m
Waning Gibbous, 94% of the Moon is Illuminated
Sep 21
Waning Gibbous
Sep 26
Last Quarter
Oct 4
New
Oct 11
First Quarter
Oct 18
Full

Hourly Weather History & Observations

Time (MDT) Temp. Dew Point Humidity Pressure Visibility Wind Dir Wind Speed Gust Speed Precip Events Conditions
12:58 AM 67.1 °F 35.6 °F 31% 29.75 in 10.0 mi ESE 8.1 mph - N/A   Clear
1:58 AM 64.9 °F 36.3 °F 35% 29.74 in 10.0 mi SE 8.1 mph - N/A   Clear
2:58 AM 64.0 °F 35.4 °F 35% 29.74 in 10.0 mi SSE 10.4 mph - N/A   Clear
3:58 AM 65.5 °F 32.0 °F 29% 29.73 in 10.0 mi South 10.4 mph - N/A   Clear
4:58 AM 64.6 °F 35.4 °F 34% 29.73 in 10.0 mi SSE 11.5 mph - N/A   Clear
5:58 AM 64.0 °F 31.6 °F 30% 29.73 in 10.0 mi South 11.5 mph - N/A   Clear
6:58 AM 62.2 °F 32.7 °F 33% 29.74 in 10.0 mi SSE 12.7 mph - N/A   Clear
7:58 AM 63.3 °F 32.9 °F 32% 29.75 in 10.0 mi SSE 11.5 mph - N/A   Clear
8:58 AM 70.3 °F 33.3 °F 25% 29.74 in 10.0 mi South 15.0 mph - N/A   Clear
9:58 AM 73.2 °F 34.0 °F 24% 29.74 in 10.0 mi South 21.9 mph 29.9 mph N/A   Clear
10:58 AM 75.7 °F 33.6 °F 22% 29.73 in 10.0 mi South 20.7 mph 31.1 mph N/A   Clear
11:58 AM 77.9 °F 32.9 °F 19% 29.70 in 10.0 mi South 24.2 mph 32.2 mph N/A   Clear
12:58 PM 79.7 °F 34.0 °F 19% 29.68 in 10.0 mi South 26.5 mph 32.2 mph N/A   Clear
1:58 PM 81.3 °F 34.0 °F 18% 29.62 in 10.0 mi South 23.0 mph 29.9 mph N/A   Clear
2:58 PM 83.5 °F 28.6 °F 14% 29.58 in 10.0 mi SSW 20.7 mph 28.8 mph N/A   Clear
3:58 PM 83.3 °F 29.1 °F 14% 29.55 in 10.0 mi SSW 18.4 mph 25.3 mph N/A   Clear
4:58 PM 83.3 °F 30.9 °F 15% 29.52 in 10.0 mi SSW 24.2 mph 34.5 mph N/A   Clear
5:58 PM 81.0 °F 31.6 °F 17% 29.50 in 10.0 mi SSW 20.7 mph 31.1 mph N/A   Clear
6:58 PM 77.9 °F 33.4 °F 20% 29.48 in 10.0 mi South 15.0 mph - N/A   Clear
7:58 PM 73.6 °F 36.1 °F 26% 29.48 in 10.0 mi SSE 11.5 mph - N/A   Partly Cloudy
8:58 PM 74.3 °F 35.4 °F 24% 29.49 in 10.0 mi South 10.4 mph - N/A   Partly Cloudy
9:58 PM 74.1 °F 35.1 °F 24% 29.48 in 10.0 mi South 15.0 mph - N/A   Mostly Cloudy
10:58 PM 73.9 °F 33.3 °F 23% 29.47 in 10.0 mi South 12.7 mph - N/A   Overcast
11:58 PM 72.3 °F 35.6 °F 26% 29.47 in 10.0 mi South 12.7 mph - N/A   Mostly Cloudy